Regional Weather Roundup
Issued by NWS

Home | Current Version | Previous Version | Text Only | Print | Product List | Glossary On
Versions: 1 2 3 4 5 6 7 8 9 10 11 12 13 14 15 16 17 18 19 20 21 22 23 24 25 26 27 28 29 30 31 32 33 34 35 36 37 38 39 40 41 42 43 44 45 46 47 48 49 50
000
ASUS43 KOAX 170810
RWRNE

WEATHER ROUNDUP FOR NEBRASKA
NATIONAL WEATHER SERVICE OMAHA NE
300 AM CDT THU AUG 17 2017

NOTES: SATELLITE DATA IS BEING USED TO AUGMENT CLOUD COVER ABOVE
       12000 FEET.
       "FAIR" INDICATES FEW OR NO CLOUDS BELOW 12,000 FEET WITH NO
       SIGNIFICANT WEATHER AND/OR OBSTRUCTIONS TO VISIBILITY.


NEZ001>004-019>022-054>056-170900-
NEBRASKA PANHANDLE

CITY           SKY/WX    TMP DP  RH WIND       PRES   REMARKS
SCOTTSBLUFF    CLEAR     55  49  80 E5        30.06F
ALLIANCE       CLEAR     50  48  93 W5        30.05F
CHADRON        CLEAR     54  49  83 SE5       30.00F
GORDON         FAIR      49  47  94 W3        30.03S
KIMBALL        CLEAR     52  51  95 SW6       30.13F
SIDNEY         CLEAR     51  49  92 SW8       30.10F
$$

NEZ057>060-069>072-079>082-170900-
SOUTHWEST NEBRASKA

CITY           SKY/WX    TMP DP  RH WIND       PRES   REMARKS
NORTH PLATTE   CLEAR     53  52  96 NW5       30.03R
IMPERIAL       CLEAR     57  53  86 W6        30.06F
LEXINGTON      CLEAR     56  53  92 W5        30.01S
MCCOOK         CLEAR     56  56 100 W7        30.02F
OGALLALA       CLEAR     52  51  96 W5        30.06S
$$

NEZ005>010-023>029-035>040-094-170900-
NORTH CENTRAL NEBRASKA

CITY           SKY/WX    TMP DP  RH WIND       PRES   REMARKS
VALENTINE      CLEAR     52  46  80 SW5       29.98F
AINSWORTH      CLEAR     52  51  93 W6        29.97F
BROKEN BOW     CLEAR     55  52  89 SW6       29.99S
O`NEILL        CLEAR     59  57  94 W7        29.91S
ORD            CLEAR     58  54  86 W7        29.94S
THEDFORD       CLEAR     54  52  92 W3        30.02S
$$

NEZ041-046>049-061>064-073>077-083>087-170900-
SOUTH CENTRAL NEBRASKA

CITY           SKY/WX    TMP DP  RH WIND       PRES   REMARKS
GRAND ISLAND   CLEAR     60  60 100 W8        29.94F
AURORA         CLEAR     59  59 100 NW5       29.92S
HASTINGS       CLEAR     60  57  89 W8        29.96F
HEBRON         CLEAR     64  61  93 W3        29.93S
HOLDREGE       CLEAR     58  55  88 W6        29.99F
KEARNEY        CLEAR     59  55  87 W7        29.98S
YORK           CLEAR     61  61 100 W10       29.90F
$$

NEZ011>018-030>034-042>045-170900-
NORTHEAST NEBRASKA

CITY           SKY/WX    TMP DP  RH WIND       PRES   REMARKS
NORFOLK        CLEAR     62  58  86 W12       29.85F
ALBION         CLEAR     62  59  90 NW8       29.90S
BLAIR          RAIN      65  62  89 W9        29.83F
COLUMBUS       CLEAR     62  60  93 W10       29.87F
FREMONT        CLEAR     65  61  88 W13       29.84S
TEKAMAH        PTCLDY    65  61  87 W8        29.80S
WAYNE          PTCLDY    64  61  91 W8        29.82S
$$

NEZ050>053-065>068-078-088>093-170900-
SOUTHEAST NEBRASKA

CITY           SKY/WX    TMP DP  RH WIND       PRES   REMARKS
LINCOLN        CLEAR     65  61  87 W7        29.87F
OMAHA EPPLEY   CLEAR     67  60  78 W7        29.82S
BEATRICE       CLEAR     64  62  94 W3        29.89R
FALLS CITY     CLEAR     65  62  90 W7        29.85S
NEBRASKA CITY  CLEAR     63  63 100 SW7       29.86S
PLATTSMOUTH    CLEAR     62  60  91 W5        29.84S
$$

NEZ044-045-051>053-067-170900-
OMAHA AREA

CITY           SKY/WX    TMP DP  RH WIND       PRES   REMARKS
OMAHA EPPLEY   CLEAR     67  60  78 W7        29.82S
BLAIR          RAIN      65  62  89 W9        29.83F
FREMONT        CLEAR     65  61  88 W13       29.84S
MILLARD        CLEAR     66  62  85 NW7       29.83F
OFFUTT AFB     CLEAR     65  60  85 W6        29.82F
PLATTSMOUTH    CLEAR     62  60  91 W5        29.84S
WAHOO          FAIR      63  62  94 W8        29.84F
$$



USA.gov is the U.S. government's official web portal to all federal, state and local government web resources and services.